Time,TemperatureF,DewpointF,PressureIn,WindDirection,WindDirectionDegrees,WindSpeedMPH,WindSpeedGustMPH,Humidity,HourlyPrecipIn,Conditions,Clouds,dailyrainin,SoftwareType,DateUTC
2013-10-11 00:13:00,60.0,55.0,29.99,North,352,2.0,6.0,83,0.00,,,0.00,weatherlink.com 1.10,2013-10-11 04:13:00,
2013-10-11 00:28:00,59.7,55.0,29.99,NNW,333,5.0,8.0,84,0.00,,,0.00,weatherlink.com 1.10,2013-10-11 04:28:00,
2013-10-11 00:43:00,59.6,55.0,29.98,NW,318,2.0,6.0,84,0.00,,,0.00,weatherlink.com 1.10,2013-10-11 04:43:00,
2013-10-11 00:58:00,59.5,55.0,29.98,North,359,2.0,7.0,84,0.00,,,0.00,weatherlink.com 1.10,2013-10-11 04:58:00,
2013-10-11 01:13:00,59.6,54.0,29.98,NNE,30,5.0,7.0,83,0.00,,,0.00,weatherlink.com 1.10,2013-10-11 05:13:00,
2013-10-11 01:28:00,59.5,55.0,29.98,North,1,6.0,10.0,84,0.00,,,0.00,weatherlink.com 1.10,2013-10-11 05:28:00,
2013-10-11 01:43:00,59.6,54.0,29.98,NNW,333,1.0,7.0,83,0.00,,,0.00,weatherlink.com 1.10,2013-10-11 05:43:00,
2013-10-11 01:58:00,59.6,54.0,29.98,North,356,1.0,6.0,83,0.00,,,0.00,weatherlink.com 1.10,2013-10-11 05:58:00,
2013-10-11 02:13:00,59.4,54.0,29.97,NNW,333,2.0,10.0,83,0.00,,,0.00,weatherlink.com 1.10,2013-10-11 06:13:00,
2013-10-11 02:28:00,59.4,54.0,29.97,NNE,12,3.0,9.0,83,0.00,,,0.00,weatherlink.com 1.10,2013-10-11 06:28:00,
2013-10-11 02:43:00,59.3,55.0,29.96,NNW,340,4.0,7.0,84,0.00,,,0.00,weatherlink.com 1.10,2013-10-11 06:43:00,
2013-10-11 02:58:00,59.6,55.0,29.95,NNE,24,5.0,7.0,84,0.00,,,0.00,weatherlink.com 1.10,2013-10-11 06:58:00,
2013-10-11 03:13:00,58.9,54.0,29.94,North,10,4.0,9.0,83,0.00,,,0.00,weatherlink.com 1.10,2013-10-11 07:13:00,
2013-10-11 03:28:00,-999.0,-99.9,29.94,North,-999,-999.0,-999.0,-999,0.00,,,0.00,weatherlink.com 1.10,2013-10-11 07:28:00,
2013-10-11 03:44:00,-999.0,-99.9,29.93,North,-999,-999.0,-999.0,-999,0.00,,,0.00,weatherlink.com 1.10,2013-10-11 07:44:00,
2013-10-11 03:59:00,-999.0,-99.9,29.94,North,-999,-999.0,-999.0,-999,0.00,,,0.00,weatherlink.com 1.10,2013-10-11 07:59:00,
2013-10-11 04:14:00,-999.0,-99.9,29.94,North,-999,-999.0,-999.0,-999,0.00,,,0.00,weatherlink.com 1.10,2013-10-11 08:14:00,
2013-10-11 04:29:00,-999.0,-99.9,29.94,North,-999,-999.0,-999.0,-999,0.00,,,0.00,weatherlink.com 1.10,2013-10-11 08:29:00,
2013-10-11 04:44:00,-999.0,-99.9,29.94,North,-999,-999.0,-999.0,-999,0.00,,,0.00,weatherlink.com 1.10,2013-10-11 08:44:00,
2013-10-11 04:59:00,-999.0,-99.9,29.94,North,-999,-999.0,-999.0,-999,0.00,,,0.00,weatherlink.com 1.10,2013-10-11 08:59:00,
2013-10-11 05:14:00,-999.0,-99.9,29.94,North,-999,-999.0,-999.0,-999,0.00,,,0.00,weatherlink.com 1.10,2013-10-11 09:14:00,
2013-10-11 05:29:00,-999.0,-99.9,29.94,North,-999,-999.0,-999.0,-999,0.00,,,0.00,weatherlink.com 1.10,2013-10-11 09:29:00,
2013-10-11 05:44:00,-999.0,-99.9,29.94,North,-999,-999.0,-999.0,-999,0.00,,,0.00,weatherlink.com 1.10,2013-10-11 09:44:00,
2013-10-11 05:59:00,-999.0,-99.9,29.94,North,-999,-999.0,-999.0,-999,0.00,,,0.00,weatherlink.com 1.10,2013-10-11 09:59:00,
2013-10-11 06:14:00,-999.0,-99.9,29.94,North,-999,-999.0,-999.0,-999,0.00,,,0.00,weatherlink.com 1.10,2013-10-11 10:14:00,
2013-10-11 06:29:00,-999.0,-99.9,29.95,North,-999,-999.0,-999.0,-999,0.00,,,0.00,weatherlink.com 1.10,2013-10-11 10:29:00,
2013-10-11 06:44:00,-999.0,-99.9,29.95,North,-999,-999.0,-999.0,-999,0.00,,,0.00,weatherlink.com 1.10,2013-10-11 10:44:00,
2013-10-11 06:59:00,-999.0,-99.9,29.95,North,-999,-999.0,-999.0,-999,0.00,,,0.00,weatherlink.com 1.10,2013-10-11 10:59:00,
2013-10-11 07:15:00,-999.0,-99.9,29.96,North,-999,-999.0,-999.0,-999,0.00,,,0.00,weatherlink.com 1.10,2013-10-11 11:15:00,
2013-10-11 07:30:00,-999.0,-99.9,29.96,North,-999,-999.0,-999.0,-999,0.00,,,0.00,weatherlink.com 1.10,2013-10-11 11:30:00,
2013-10-11 07:45:00,-999.0,-99.9,29.97,North,-999,-999.0,-999.0,-999,0.00,,,0.00,weatherlink.com 1.10,2013-10-11 11:45:00,
2013-10-11 08:00:00,-999.0,-99.9,29.97,North,-999,-999.0,-999.0,-999,0.00,,,0.00,weatherlink.com 1.10,2013-10-11 12:00:00,
2013-10-11 08:15:00,60.9,57.0,29.97,NE,54,4.0,8.0,86,0.00,,,0.00,weatherlink.com 1.10,2013-10-11 12:15:00,
2013-10-11 08:30:00,61.1,57.0,29.97,North,9,4.0,9.0,86,0.00,,,0.00,weatherlink.com 1.10,2013-10-11 12:30:00,
2013-10-11 08:45:00,61.4,57.0,29.98,West,277,2.0,7.0,86,0.00,,,0.00,weatherlink.com 1.10,2013-10-11 12:45:00,
2013-10-11 09:00:00,61.7,58.0,29.97,North,9,2.0,6.0,86,0.00,,,0.00,weatherlink.com 1.10,2013-10-11 13:00:00,
2013-10-11 09:15:00,62.3,58.0,29.97,East,79,2.0,7.0,87,0.00,,,0.00,weatherlink.com 1.10,2013-10-11 13:15:00,
2013-10-11 09:30:00,63.0,59.0,29.97,NNW,345,2.0,10.0,85,0.00,,,0.00,weatherlink.com 1.10,2013-10-11 13:30:00,
2013-10-11 09:45:00,63.6,59.0,29.97,NE,47,0.0,6.0,84,0.00,,,0.00,weatherlink.com 1.10,2013-10-11 13:45:00,
2013-10-11 10:00:00,63.5,59.0,29.97,NW,306,4.0,7.0,84,0.00,,,0.00,weatherlink.com 1.10,2013-10-11 14:00:00,
2013-10-11 10:15:00,63.5,59.0,29.97,NNE,22,6.0,7.0,84,0.00,,,0.00,weatherlink.com 1.10,2013-10-11 14:15:00,
2013-10-11 10:30:00,64.4,59.0,29.96,NNE,15,2.0,8.0,83,0.00,,,0.00,weatherlink.com 1.10,2013-10-11 14:30:00,
2013-10-11 10:45:00,65.6,59.0,29.96,NE,40,3.0,8.0,80,0.00,,,0.00,weatherlink.com 1.10,2013-10-11 14:45:00,
2013-10-11 11:00:00,65.5,59.0,29.97,NE,41,8.0,8.0,80,0.00,,,0.00,weatherlink.com 1.10,2013-10-11 15:00:00,
2013-10-11 11:30:00,65.4,59.0,29.96,NNW,333,3.0,13.0,81,0.00,,,0.00,weatherlink.com 1.10,2013-10-11 15:30:00,
2013-10-11 11:45:00,65.0,59.0,29.96,North,356,3.0,7.0,80,0.00,,,0.00,weatherlink.com 1.10,2013-10-11 15:45:00,
2013-10-11 12:00:00,64.7,59.0,29.96,NNE,15,4.0,9.0,81,0.00,,,0.00,weatherlink.com 1.10,2013-10-11 16:00:00,
2013-10-11 12:15:00,64.5,59.0,29.96,East,80,7.0,9.0,82,0.00,,,0.00,weatherlink.com 1.10,2013-10-11 16:15:00,
2013-10-11 12:30:00,63.7,59.0,29.96,ENE,70,3.0,15.0,84,0.00,,,0.00,weatherlink.com 1.10,2013-10-11 16:30:00,
2013-10-11 12:45:00,62.8,59.0,29.95,NNE,12,3.0,9.0,87,0.00,,,0.00,weatherlink.com 1.10,2013-10-11 16:45:00,
2013-10-11 13:00:00,62.4,60.0,29.95,NE,41,3.0,7.0,90,0.00,,,0.00,weatherlink.com 1.10,2013-10-11 17:00:00,
2013-10-11 13:15:00,62.2,60.0,29.95,NNE,17,2.0,6.0,91,0.00,,,0.00,weatherlink.com 1.10,2013-10-11 17:15:00,
2013-10-11 13:30:00,62.4,60.0,29.95,NNE,22,4.0,9.0,91,0.00,,,0.00,weatherlink.com 1.10,2013-10-11 17:30:00,
2013-10-11 13:45:00,62.7,60.0,29.94,NNW,342,3.0,10.0,91,0.00,,,0.00,weatherlink.com 1.10,2013-10-11 17:45:00,
2013-10-11 14:00:00,63.0,60.0,29.94,NE,43,4.0,9.0,90,0.00,,,0.00,weatherlink.com 1.10,2013-10-11 18:00:00,
2013-10-11 14:15:00,63.3,61.0,29.94,North,354,3.0,8.0,91,0.00,,,0.00,weatherlink.com 1.10,2013-10-11 18:15:00,
2013-10-11 14:30:00,63.7,61.0,29.93,NNW,342,4.0,7.0,89,0.00,,,0.00,weatherlink.com 1.10,2013-10-11 18:30:00,
2013-10-11 14:45:00,64.0,60.0,29.93,NNE,20,2.0,7.0,88,0.00,,,0.00,weatherlink.com 1.10,2013-10-11 18:45:00,
2013-10-11 15:00:00,64.6,61.0,29.93,ENE,70,4.0,7.0,87,0.00,,,0.00,weatherlink.com 1.10,2013-10-11 19:00:00,
2013-10-11 15:15:00,64.9,61.0,29.93,NNE,30,3.0,9.0,86,0.00,,,0.00,weatherlink.com 1.10,2013-10-11 19:15:00,
2013-10-11 15:30:00,65.1,61.0,29.92,NNW,346,3.0,11.0,85,0.00,,,0.00,weatherlink.com 1.10,2013-10-11 19:30:00,
2013-10-11 15:45:00,65.2,60.0,29.93,North,6,3.0,6.0,84,0.00,,,0.00,weatherlink.com 1.10,2013-10-11 19:45:00,
2013-10-11 16:00:00,65.4,61.0,29.93,NW,320,2.0,10.0,85,0.00,,,0.00,weatherlink.com 1.10,2013-10-11 20:00:00,
2013-10-11 16:16:00,65.4,61.0,29.94,North,358,3.0,6.0,84,0.00,,,0.00,weatherlink.com 1.10,2013-10-11 20:16:00,
2013-10-11 16:31:00,65.4,61.0,29.94,North,354,2.0,6.0,85,0.00,,,0.00,weatherlink.com 1.10,2013-10-11 20:31:00,
2013-10-11 16:46:00,65.3,60.0,29.94,NNW,338,1.0,6.0,84,0.00,,,0.00,weatherlink.com 1.10,2013-10-11 20:46:00,
2013-10-11 17:01:00,65.4,61.0,29.95,NNW,342,1.0,5.0,84,0.00,,,0.00,weatherlink.com 1.10,2013-10-11 21:01:00,
2013-10-11 17:16:00,65.4,61.0,29.95,NNW,347,1.0,4.0,85,0.00,,,0.00,weatherlink.com 1.10,2013-10-11 21:16:00,
2013-10-11 17:31:00,65.3,61.0,29.95,NE,50,0.0,4.0,85,0.00,,,0.00,weatherlink.com 1.10,2013-10-11 21:31:00,
2013-10-11 17:46:00,65.1,61.0,29.96,NE,46,3.0,5.0,85,0.00,,,0.00,weatherlink.com 1.10,2013-10-11 21:46:00,
2013-10-11 18:01:00,64.8,61.0,29.96,NE,39,0.0,3.0,86,0.00,,,0.00,weatherlink.com 1.10,2013-10-11 22:01:00,
2013-10-11 18:16:00,64.5,60.0,29.96,NNE,16,0.0,2.0,86,0.00,,,0.00,weatherlink.com 1.10,2013-10-11 22:16:00,
2013-10-11 18:31:00,64.3,60.0,29.96,NW,319,0.0,2.0,86,0.00,,,0.00,weatherlink.com 1.10,2013-10-11 22:31:00,
2013-10-11 18:46:00,64.0,60.0,29.96,North,6,0.0,2.0,86,0.00,,,0.00,weatherlink.com 1.10,2013-10-11 22:46:00,
2013-10-11 19:01:00,64.0,60.0,29.96,South,191,2.0,4.0,86,0.00,,,0.00,weatherlink.com 1.10,2013-10-11 23:01:00,
2013-10-11 19:16:00,63.8,60.0,29.96,SW,217,0.0,3.0,86,0.00,,,0.00,weatherlink.com 1.10,2013-10-11 23:16:00,
2013-10-11 19:31:00,63.9,60.0,29.96,ESE,115,0.0,4.0,86,0.00,,,0.00,weatherlink.com 1.10,2013-10-11 23:31:00,
2013-10-11 19:46:00,63.9,59.0,29.97,NE,49,0.0,3.0,85,0.00,,,0.00,weatherlink.com 1.10,2013-10-11 23:46:00,
2013-10-11 20:01:00,63.6,59.0,29.97,NW,310,0.0,5.0,85,0.00,,,0.00,weatherlink.com 1.10,2013-10-12 00:01:00,
2013-10-11 20:16:00,63.5,59.0,29.98,NNW,346,0.0,1.0,86,0.00,,,0.00,weatherlink.com 1.10,2013-10-12 00:16:00,
2013-10-11 20:31:00,63.7,59.0,29.98,NE,41,0.0,3.0,85,0.00,,,0.00,weatherlink.com 1.10,2013-10-12 00:31:00,
2013-10-11 20:46:00,64.1,59.0,29.98,NW,323,2.0,4.0,84,0.00,,,0.00,weatherlink.com 1.10,2013-10-12 00:46:00,
2013-10-11 21:01:00,64.7,59.0,29.99,NNE,26,0.0,4.0,82,0.00,,,0.00,weatherlink.com 1.10,2013-10-12 01:01:00,
2013-10-11 21:16:00,64.5,59.0,29.99,NNE,15,1.0,4.0,83,0.00,,,0.00,weatherlink.com 1.10,2013-10-12 01:16:00,
2013-10-11 21:31:00,64.9,59.0,30.00,NNW,330,0.0,5.0,82,0.00,,,0.00,weatherlink.com 1.10,2013-10-12 01:31:00,
2013-10-11 21:46:00,65.0,59.0,30.00,NNE,12,3.0,5.0,81,0.00,,,0.00,weatherlink.com 1.10,2013-10-12 01:46:00,
2013-10-11 22:01:00,64.5,59.0,30.01,East,90,1.0,2.0,82,0.00,,,0.00,weatherlink.com 1.10,2013-10-12 02:01:00,
2013-10-11 22:16:00,64.2,59.0,30.01,ENE,72,0.0,4.0,83,0.00,,,0.00,weatherlink.com 1.10,2013-10-12 02:16:00,
2013-10-11 22:31:00,63.4,59.0,30.01,NNW,333,0.0,1.0,84,0.00,,,0.00,weatherlink.com 1.10,2013-10-12 02:31:00,
2013-10-11 22:46:00,62.8,59.0,30.00,NW,323,0.0,0.0,86,0.00,,,0.00,weatherlink.com 1.10,2013-10-12 02:46:00,
2013-10-11 23:01:00,62.2,58.0,30.00,ESE,111,0.0,0.0,87,0.00,,,0.00,weatherlink.com 1.10,2013-10-12 03:01:00,
2013-10-11 23:16:00,62.5,59.0,30.00,WNW,291,0.0,2.0,87,0.00,,,0.00,weatherlink.com 1.10,2013-10-12 03:16:00,
2013-10-11 23:31:00,62.8,59.0,29.99,NNW,340,0.0,3.0,86,0.00,,,0.00,weatherlink.com 1.10,2013-10-12 03:31:00,
2013-10-11 23:46:00,62.9,59.0,29.98,NNE,12,1.0,4.0,86,0.00,,,0.00,weatherlink.com 1.10,2013-10-12 03:46:00,